CAPE
1 1 1 0 0 0 0 0 0 0 0 0 4 39 1 0 0 0 0 1 3 0 34 0 0 2 0 0 0 0 0 0 0 0 0 0 0 0 0 0 0 0 0 0
14 1 0 0 0 0 0 0 0 0 0 0 1 1 10 18 0 0 0 2 12 31 7 0 0 0 0 0 0 0 0 0 0 0 0 0 0 0 0 0 0 0 0 0
0 0 0 0 0 0 0 0 0 0 0 0 0 0 7 0 0 0 0 0 11 12 0 0 0 0 0 0 0 0 0 0 0 0 0 0 0 0 0 1 0 0 0 0
5 0 0 0 0 0 0 0 0 0 0 0 4 5 2 12 0 0 0 0 0 0 0 0 0 0 0 0 0 0 0 0 0 0 0 0 0 0 0 0 0 0 0 0
1 1 0 5 0 0 0 0 0 0 0 11 0 1 0 3 0 0 0 0 0 0 0 0 0 0 0 0 0 0 0 0 0 0 0 0 0 0 0 0 0 0 0 0
2 0 0 0 0 0 0 0 0 4 20 20 0 0 0 0 0 0 0 0 0 0 0 0 0 0 0 0 0 0 0 0 0 0 0 0 0 0 0 0 0 0 0 0
1 1 0 0 0 0 1 3 12 11 2 0 0 0 0 0 0 0 0 0 0 0 0 0 0 0 0 0 0 0 0 0 0 0 0 0 0 0 0 0 0 0 0 0
0 0 5 4 0 0 8 5 5 1 0 0 0 32 1 0 0 0 0 0 0 0 0 0 0 0 0 0 0 0 0 0 0 0 0 0 0 0 0 0 0 0 0 0
2 0 0 3 0 0 2 26 0 0 65 4 30 54 3 0 0 0 0 0 0 0 0 0 0 0 0 2 0 0 0 0 0 0 0 0 0 0 0 0 0 0 0 0
0 0 0 4 4 0 45 0 4 13 0 13 0 1 0 0 0 0 0 0 0 0 0 0 0 0 0 0 0 0 0 0 0 0 0 0 0 0 0 0 0 0 0 0
0 5 1 2 3 0 3 1 26 0 0 5 0 0 0 0 0 0 0 0 0 0 0 0 0 1 0 0 0 0 0 0 0 0 0 0 0 0 0 0 0 0 0 0
2 4 1 0 0 0 7 2 1 0 1 0 0 0 0 0 0 0 0 0 0 0 0 0 0 0 0 0 0 0 0 0 0 0 0 0 0 0 0 0 0 0 0 0
9 1 0 0 0 0 0 0 2 0 1 0 0 0 0 0 0 0 0 0 0 0 0 0 0 0 0 0 0 0 0 0 0 0 0 0 0 0 0 0 0 0 0 0
10 0 2 4 1 5 1 0 4 8 0 1 0 0 0 0 0 0 0 0 0 0 0 0 0 0 0 0 0 0 0 0 0 0 0 0 0 0 0 0 0 0 0 0
6 1 0 1 4 5 7 4 1 1 1 1 0 1 2 5 0 0 0 0 0 0 0 0 0 0 0 0 0 0 0 0 0 0 0 0 0 0 0 0 0 0 0 0
4 2 2 0 0 0 0 1 4 3 4 6 8 3 1 0 0 0 0 0 0 0 0 0 0 0 0 0 0 0 0 0 0 0 1 1 1 0 0 0 0 0 0 0
11 1 0 0 0 0 0 2 5 6 2 8 7 9 11 2 0 0 0 0 0 0 0 0 0 0 0 0 0 0 0 0 0 0 0 0 0 1 1 1 0 0 0 0
8 0 0 0 0 0 1 0 1 0 0 1 0 0 8 5 1 0 0 0 0 0 0 0 0 0 0 0 0 0 0 0 0 0 0 0 0 1 1 1 1 1 0 0
0 1 0 0 0 0 0 0 0 0 0 0 0 0 0 0 0 0 0 0 0 0 0 0 0 0 0 0 0 0 0 0 0 0 0 0 0 0 0 0 0 0 0 0
0 0 0 0 0 0 0 0 0 0 0 0 0 0 0 0 0 0 0 0 0 0 0 0 0 0 0 0 0 0 0 0 0 0 0 0 0 0 0 0 0 0 0 0
0 0 0 0 0 0 0 0 0 0 0 0 0 0 0 0 0 0 0 0 0 0 0 0 0 0 0 0 0 0 0 0 0 0 0 0 0 0 0 0 0 0 0 0
0 0 0 0 0 0 0 0 0 0 0 0 0 0 0 0 0 0 0 0 0 0 0 0 0 0 0 0 0 0 0 0 0 0 0 0 0 0 0 0 0 0 0 0
0 0 0 0 0 0 0 0 0 0 0 0 0 0 0 0 0 0 0 0 0 0 0 0 0 0 0 0 0 0 0 0 0 0 0 0 0 0 0 0 0 0 0 0
0 0 0 0 0 0 0 0 0 0 0 0 0 0 0 0 0 0 0 0 0 0 0 0 0 0 0 0 0 0 0 0 0 0 0 0 0 1 0 0 0 0 0 0
0 0 0 0 0 0 0 0 0 0 0 0 0 0 0 0 0 0 0 0 0 0 0 0 0 0 0 0 0 0 0 0 0 0 0 0 0 0 0 0 0 0 0 0
0 0 0 0 0 0 0 0 0 0 0 0 0 0 0 0 0 0 0 0 0 0 0 0 0 0 0 0 0 0 0 0 0 0 0 0 0 0 0 0 0 0 0 0
CIN
-0 -0 -0 -0 -0 -0 -0 -0 -0 -0 -0 -0 -0 -0 -26 -0 -0 -0 -0 -288 -280 -0 -341 -0 -0 -290 -0 -0 -0 -0 -0 -0 -0 -0 -0 -0 -0 -0 -0 -0 -0 -0 -0 -0
-0 -0 -0 -0 -0 -0 -0 -0 -0 -0 -0 -0 -0 -0 -9 -14 -0 -0 -0 -256 -306 -332 -291 -0 -0 -0 -0 -0 -0 -0 -0 -0 -0 -0 -0 -0 -0 -0 -0 -0 -0 -0 -0 -0
-0 -0 -0 -0 -0 -0 -0 -0 -0 -0 -0 -0 -0 -0 -14 -20 -0 -0 -0 -0 -269 -340 -185 -0 -0 -0 -0 -0 -0 -0 -0 -0 -0 -0 -0 -0 -0 -0 -0 -0 -0 -0 -0 -0
-0 -0 -0 -0 -0 -0 -0 -0 -0 -0 -0 -0 -3 -1 -3 -11 -0 -0 -0 -0 -0 -0 -0 -0 -0 -0 -0 -0 -0 -0 -0 -0 -0 -0 -0 -0 -0 -0 -0 -0 -0 -0 -0 -0
-0 -0 -0 -0 -0 -0 -0 -0 -0 -0 -0 -2 -0 -0 -0 -20 -0 -0 -0 -0 -0 -0 -0 -0 -0 -0 -0 -0 -0 -0 -0 -0 -0 -0 -0 -0 -0 -0 -0 -0 -0 -0 -0 -0
-0 -0 -0 -0 -0 -0 -0 -0 -6 -0 -3 -0 -0 -0 -0 -0 -0 -0 -0 -0 -0 -0 -0 -0 -0 -0 -0 -0 -0 -0 -0 -0 -0 -0 -0 -0 -0 -0 -0 -0 -0 -0 -0 -0
-0 -0 -0 -0 -0 -2 -3 -0 -0 -0 -8 -0 -0 -2 -0 -0 -0 -0 -0 -0 -0 -0 -0 -0 -0 -0 -0 -0 -0 -0 -0 -0 -0 -0 -0 -0 -0 -0 -0 -0 -0 -0 -0 -0
-0 -0 -0 -0 -0 -0 -0 -4 -13 -0 -0 -0 -0 -0 -0 -0 -0 -0 -0 -0 -0 -0 -0 -0 -0 -0 -0 -0 -0 -0 -0 -0 -0 -0 -0 -0 -0 -0 -0 -0 -0 -0 -0 -0
-0 -0 -0 -0 -0 -0 -1 -0 -0 -0 -34 -0 -8 -1 -25 -0 -0 -0 -0 -0 -0 -0 -0 -0 -0 -0 -17 -553 -0 -0 -0 -0 -0 -0 -0 -0 -0 -0 -0 -0 -0 -0 -0 -0
-0 -0 -0 -0 -0 -5 -21 -0 -0 -1 -0 -0 -0 -0 -0 -0 -0 -0 -0 -0 -0 -0 -0 -0 -0 -0 -0 -209 -0 -0 -0 -0 -0 -0 -0 -0 -0 -0 -0 -0 -0 -0 -0 -0
-0 -0 -0 -0 -0 -0 -0 -0 -3 -2 -0 -0 -0 -0 -0 -0 -0 -0 -0 -0 -0 -0 -0 -0 -0 -164 -0 -0 -0 -0 -0 -0 -0 -0 -0 -0 -0 -0 -0 -0 -0 -0 -0 -0
-0 -0 -0 -0 -0 -0 -4 -0 -0 -0 -7 -0 -0 -0 -0 -0 -0 -0 -0 -0 -0 -0 -0 -0 -0 -0 -0 -0 -0 -0 -0 -0 -0 -0 -0 -0 -0 -0 -0 -0 -0 -0 -0 -0
-0 -0 -0 -0 -0 -0 -0 -2 -2 -0 -0 -0 -0 -0 -0 -0 -0 -0 -0 -0 -0 -0 -0 -0 -0 -0 -0 -0 -0 -0 -0 -0 -0 -0 -0 -0 -0 -0 -0 -0 -0 -0 -0 -0
-0 -0 -0 -0 -0 -0 -0 -0 -1 -0 -0 -1 -0 -0 -0 -0 -0 -0 -0 -0 -0 -0 -0 -0 -0 -0 -0 -0 -0 -0 -0 -0 -0 -0 -0 -0 -0 -0 -0 -0 -0 -0 -0 -0
-0 -0 -0 -0 -0 -0 -0 -0 -0 -3 -0 -0 -0 -0 -0 -0 -0 -0 -0 -0 -0 -0 -0 -0 -0 -0 -0 -0 -0 -0 -0 -0 -0 -0 -0 -0 -0 -0 -0 -0 -0 -0 -0 -0
-0 -0 -0 -0 -0 -0 -0 -0 -0 -0 -0 -0 -0 -0 -0 -0 -0 -0 -0 -0 -0 -0 -0 -0 -0 -0 -0 -0 -0 -0 -0 -0 -0 -0 -0 -0 -0 -0 -0 -0 -0 -0 -0 -0
-0 -0 -0 -0 -0 -0 -0 -0 -0 -0 -0 -0 -0 -0 -0 -0 -0 -0 -0 -0 -0 -0 -0 -0 -0 -0 -0 -0 -0 -0 -0 -0 -0 -0 -0 -0 -0 -0 -0 -0 -0 -0 -0 -0
-0 -0 -0 -0 -0 -0 -0 -0 -0 -0 -0 -0 -0 -0 -0 -0 -0 -0 -0 -0 -0 -0 -0 -0 -0 -0 -0 -0 -0 -0 -0 -0 -0 -0 -0 -0 -0 -0 -0 -0 -0 -0 -0 -0
-0 -0 -0 -0 -0 -0 -0 -0 -0 -0 -0 -0 -0 -0 -0 -0 -0 -0 -0 -0 -0 -0 -0 -0 -0 -0 -0 -0 -0 -0 -0 -0 -0 -0 -0 -0 -0 -0 -0 -0 -0 -0 -0 -0
-0 -0 -0 -0 -0 -0 -0 -0 -0 -0 -0 -0 -0 -0 -0 -0 -0 -0 -0 -0 -0 -0 -0 -0 -0 -0 -0 -0 -0 -0 -0 -0 -0 -0 -0 -0 -0 -0 -0 -0 -0 -0 -0 -0
-0 -0 -0 -0 -0 -0 -0 -0 -0 -0 -0 -0 -0 -0 -0 -0 -0 -0 -0 -0 -0 -0 -0 -0 -0 -0 -0 -0 -0 -0 -0 -0 -0 -0 -0 -0 -0 -0 -0 -0 -0 -0 -0 -0
-0 -0 -0 -0 -0 -0 -0 -0 -0 -0 -0 -0 -0 -0 -0 -0 -0 -0 -0 -0 -0 -0 -0 -0 -0 -0 -0 -0 -0 -0 -0 -0 -0 -0 -0 -0 -0 -0 -0 -0 -0 -0 -0 -0
-0 -0 -0 -0 -0 -0 -0 -0 -0 -0 -0 -0 -0 -0 -0 -0 -0 -0 -0 -0 -0 -0 -0 -0 -0 -0 -0 -0 -0 -0 -0 -0 -0 -0 -0 -0 -0 -0 -0 -0 -0 -0 -0 -0
-0 -0 -0 -0 -0 -0 -0 -0 -0 -0 -0 -0 -0 -0 -0 -0 -0 -0 -0 -0 -0 -0 -0 -0 -0 -0 -0 -0 -0 -0 -0 -0 -0 -0 -0 -0 -0 -0 -0 -0 -0 -0 -0 -0
-0 -0 -0 -0 -0 -0 -0 -0 -0 -0 -0 -0 -0 -0 -0 -0 -0 -0 -0 -0 -0 -0 -0 -0 -0 -0 -0 -0 -0 -0 -0 -0 -0 -0 -0 -0 -0 -0 -0 -0 -0 -0 -0 -0
-0 -0 -0 -0 -0 -0 -0 -0 -0 -0 -0 -0 -0 -0 -0 -0 -0 -0 -0 -0 -0 -0 -0 -0 -0 -0 -0 -0 -0 -0 -0 -0 -0 -0 -0 -0 -0 -0 -0 -0 -0 -0 -0 -0
Wind_Speed
6 7 18 16 17 13 5 7 9 14 4 5 18 22 13 14 5 7 8 9 11 14 12 10 13 14 14 13 15 15 15 14 12 8 9 7 9 6 4 5 7 7 6 7
6 21 7 6 8 9 11 13 19 12 8 9 16 18 19 16 17 9 10 10 13 13 9 13 14 16 16 16 16 16 16 15 13 10 9 4 6 3 3 4 6 7 7 8
14 9 12 16 15 14 16 16 16 15 11 10 8 20 16 22 23 16 16 11 12 14 15 12 14 19 15 18 19 18 17 16 15 13 7 3 4 3 2 3 4 5 7 8
15 18 12 12 18 16 18 19 16 12 4 13 6 11 16 19 21 24 21 13 13 13 14 14 16 16 21 22 17 18 18 17 15 15 12 15 10 9 6 8 5 6 7 7
7 7 16 19 18 18 19 10 13 9 16 6 23 9 7 17 20 23 25 22 16 16 16 17 17 20 19 18 18 16 16 17 17 16 16 13 12 9 3 3 8 8 6 7
17 2 8 8 17 16 2 12 8 8 5 11 25 9 8 11 24 19 18 22 20 15 16 16 19 19 16 16 16 17 19 19 18 18 19 19 18 9 7 8 8 8 5 6
11 23 7 8 9 9 14 7 2 4 8 13 9 13 24 10 6 16 21 22 21 18 18 17 18 17 17 19 20 17 19 20 19 20 20 19 18 15 14 12 10 10 7 5
5 8 17 11 13 10 17 12 5 8 5 14 12 11 9 18 10 5 3 11 15 16 16 18 20 19 19 21 22 21 21 20 20 21 21 18 18 12 10 12 10 10 10 10
6 9 3 10 7 14 7 11 18 7 2 5 10 10 1 8 8 8 7 6 7 12 14 18 18 17 18 19 21 23 21 20 20 21 17 17 15 16 12 12 11 9 9 7
6 9 6 7 6 6 6 10 8 9 2 11 4 5 2 10 11 8 8 9 7 6 7 11 14 15 16 18 20 20 22 23 21 19 16 15 15 15 11 10 12 10 8 9
5 6 3 9 8 13 10 7 6 5 8 6 4 2 4 7 8 8 6 9 9 10 7 6 8 11 14 12 13 16 17 18 17 16 16 16 14 14 12 11 11 12 10 11
2 5 1 1 3 4 4 10 13 5 6 8 4 3 5 7 6 5 4 7 6 6 6 5 5 1 3 8 11 13 14 14 15 14 14 16 13 13 14 12 13 12 14 13
6 3 3 1 2 5 3 4 5 5 6 3 3 3 4 6 8 8 8 11 11 12 12 11 11 9 7 6 1 7 10 13 10 11 13 13 13 14 15 14 11 10 10 11
10 2 5 3 2 3 3 2 6 8 3 3 4 8 4 9 11 12 13 13 12 13 13 13 14 11 9 7 6 5 4 1 6 9 11 12 13 15 15 14 14 14 15 13
8 4 2 2 5 2 5 1 2 3 1 3 11 9 4 7 9 7 6 12 14 15 15 15 14 11 12 11 9 7 5 4 2 5 10 12 11 11 10 9 9 10 13 12
6 4 4 5 7 10 12 15 6 3 3 4 7 5 6 12 10 15 14 13 13 11 10 10 11 12 13 13 11 7 7 6 4 1 2 2 4 7 8 8 9 9 7 7
6 6 5 2 4 4 6 14 13 8 11 6 7 6 7 12 14 14 13 13 11 10 12 14 14 11 11 12 11 8 6 5 5 2 1 2 3 3 4 5 5 5 7 7
6 7 2 3 4 6 4 1 6 14 10 10 10 10 9 8 7 8 8 10 12 13 13 11 9 11 11 9 8 9 7 5 5 5 3 3 4 5 4 5 6 6 6 8
3 3 3 3 3 3 2 3 4 5 9 8 7 8 4 7 1 7 9 8 8 9 9 9 10 10 9 10 10 9 6 5 5 6 6 4 3 4 5 6 6 4 4 5
5 4 4 4 5 2 2 4 2 2 8 7 7 9 7 5 5 3 8 6 8 8 8 10 9 7 8 9 9 6 6 8 8 7 7 6 5 5 6 5 5 3 4 4
7 5 5 5 3 3 4 10 2 4 1 4 4 4 6 5 1 4 5 6 5 4 7 8 5 7 8 10 10 11 9 10 8 9 9 5 5 5 6 5 4 4 4 5
3 3 3 3 5 3 7 4 5 0 1 0 2 3 3 2 2 3 4 6 6 8 9 10 7 7 8 9 9 8 10 10 10 11 9 6 5 3 1 5 3 5 5 6
3 4 3 5 4 1 3 2 2 1 1 3 2 3 3 4 4 5 5 6 6 6 5 5 7 7 8 10 9 10 10 9 10 9 7 7 7 3 3 4 4 3 4 5
3 0 3 5 4 0 4 1 2 2 2 2 2 2 2 2 4 5 5 5 5 4 5 5 8 10 10 10 8 7 10 11 11 11 11 8 4 4 2 3 4 4 7 7
5 2 4 5 5 2 2 2 3 4 2 4 4 2 3 3 4 3 4 5 5 4 4 4 6 5 7 8 8 8 9 9 10 9 9 9 6 4 3 3 3 3 2 4
6 7 5 6 5 3 2 3 3 3 3 5 5 6 4 3 5 2 4 2 2 3 4 4 5 5 7 8 9 10 9 9 9 9 8 7 6 5 2 1 1 3 3 3
Wind_Direction
206 211 218 193 207 239 289 291 278 257 226 15 262 254 226 242 224 227 216 194 197 211 208 181 187 185 179 186 183 183 176 178 174 181 182 193 201 197 195 191 182 180 169 158
197 237 241 204 212 232 242 254 268 285 289 266 266 272 251 226 236 207 218 212 198 217 178 191 185 188 187 185 189 187 186 178 186 186 190 184 179 181 187 179 183 181 170 163
220 199 197 206 218 215 224 233 246 250 303 282 259 275 270 235 229 215 218 213 208 200 189 192 185 194 187 195 193 190 188 184 187 188 163 91 87 70 133 184 189 187 172 169
246 239 241 196 219 211 236 217 232 238 268 249 71 287 232 227 231 227 222 206 201 198 196 195 196 193 198 203 191 194 190 185 189 180 178 191 195 191 201 191 183 175 177 176
224 204 221 220 211 200 236 207 221 214 234 277 267 280 240 205 222 223 225 220 211 197 192 194 199 203 205 196 197 192 191 189 190 188 188 192 202 203 147 144 168 178 180 181
244 202 213 222 223 201 112 249 231 232 197 241 242 222 283 218 224 222 220 219 219 202 195 197 201 207 204 199 194 191 192 193 190 192 194 196 201 183 165 174 183 188 188 185
240 236 217 204 195 199 201 221 205 211 205 233 216 218 234 249 247 206 217 217 212 208 198 197 199 201 201 194 195 195 194 197 193 196 199 198 201 192 188 183 188 179 178 187
255 279 187 180 196 191 193 179 219 192 205 244 211 257 250 231 244 192 230 212 213 214 206 209 204 200 197 197 194 195 197 197 196 197 201 199 201 200 196 190 190 194 196 197
269 247 176 188 159 170 181 200 221 316 279 281 177 207 157 17 17 10 4 324 258 217 204 209 209 204 194 196 196 197 198 202 199 200 198 201 199 204 194 190 191 194 188 179
277 285 203 144 182 227 159 164 169 211 210 240 84 113 304 345 334 338 343 310 284 308 257 219 211 203 199 198 197 196 198 200 198 196 198 200 197 201 189 179 190 187 174 168
248 243 63 127 208 168 186 220 221 148 244 312 122 45 346 302 308 308 326 306 352 338 308 261 225 207 199 195 195 200 198 201 200 197 195 195 193 192 184 187 189 187 178 182
229 289 331 312 284 249 179 189 196 173 207 197 226 13 356 335 337 316 338 4 11 1 356 2 18 357 211 187 176 189 195 201 203 202 198 198 190 181 187 191 193 187 193 188
346 308 319 32 20 15 71 132 174 232 313 296 87 158 354 5 29 18 31 39 30 29 23 33 38 32 29 29 40 192 189 202 196 195 201 200 192 186 196 199 195 184 193 197
333 332 332 79 353 333 273 171 169 195 238 210 128 140 46 23 31 24 21 38 34 40 27 35 35 30 31 25 24 41 52 179 169 186 192 194 195 199 202 200 186 195 187 189
349 317 326 21 352 65 17 87 146 170 294 293 152 126 114 50 35 24 12 34 29 31 26 25 27 21 24 28 23 19 15 37 62 190 193 201 201 201 200 195 193 189 194 193
338 308 328 355 6 84 51 22 9 52 8 53 104 68 332 53 37 25 21 23 23 16 29 31 25 20 23 21 12 355 12 4 342 346 48 79 162 175 180 177 182 183 174 157
316 326 351 319 326 344 24 356 10 57 20 342 43 17 47 58 44 30 11 8 19 18 9 13 11 17 19 13 356 349 359 6 349 360 27 131 127 132 116 116 126 150 159 157
303 333 15 304 341 50 54 31 63 61 47 41 32 18 20 91 77 54 25 11 11 1 9 19 7 1 4 358 350 334 359 4 351 340 316 244 190 180 185 176 184 167 162 166
315 319 349 63 30 109 60 17 10 7 36 14 13 16 103 185 242 45 26 20 12 8 6 359 358 3 2 4 346 334 6 354 329 313 294 282 223 199 191 192 183 166 153 154
360 46 103 14 84 87 283 297 347 225 49 5 8 14 21 175 62 339 348 8 10 16 12 2 352 9 18 354 334 336 6 28 8 337 305 282 237 214 208 202 183 161 157 173
340 356 40 19 80 319 314 312 278 72 76 336 5 17 23 60 24 310 344 3 4 0 5 357 3 26 10 353 349 10 13 14 331 316 315 295 270 242 214 173 155 163 155 139
340 64 6 25 57 345 3 354 75 204 273 346 19 27 48 52 8 350 17 10 10 5 3 9 14 16 8 3 3 8 12 336 327 321 319 305 282 232 230 182 174 159 166 172
317 183 210 170 212 346 335 87 338 324 58 360 359 335 354 17 4 348 352 7 8 11 8 359 5 358 13 8 10 5 346 335 326 321 314 309 307 291 198 182 190 171 167 183
253 170 237 39 298 235 335 15 55 63 90 335 340 319 354 5 345 349 358 357 3 9 15 1 11 16 7 360 359 351 336 337 338 339 335 325 298 293 275 276 186 219 196 172
211 59 202 270 287 3 219 145 360 339 15 29 4 19 34 7 347 335 337 343 353 6 9 20 24 11 352 338 345 340 344 343 344 335 328 326 316 274 243 241 229 224 270 241
189 194 162 226 210 159 214 128 341 350 7 22 8 341 356 7 333 340 308 297 7 15 3 10 10 0 343 344 345 348 350 350 341 340 338 330 322 306 289 234 335 5 249 204